User: anonymous   Login
Location: Eimen
(51.8766°N, 9.7806°E)
Time: 20:01:20
(UTC+00:00)
Language:

Cosmos 2278 - Orbit

View from above orbital plane
View from above orbital plane
View from above satellite
View from above satellite

Ground track
Ground track

The orbit data is extracted from the following two-line orbital elements,

1 23087U 94023A   24197.83509904  .00000432  00000-0  25136-3 0  9998
2 23087  71.0543 354.0766 0010312 233.6780 126.3391 14.14108567559965
Epoch (UTC): 15 July 2024 20:02:32
Eccentricity: 0.0010312
inclination: 71.0543°
perigee height: 838 km
apogee height: 853 km
right ascension of ascending node: 354.0766°
argument of perigee: 233.6780°
revolutions per day: 14.14108567
mean anomaly at epoch: 126.3391°
orbit number at epoch: 55996

The dashed part of the orbit path shows where the satellite is in the earth's shadow,  

DLR